EW7535 Weather Reports


time (UTC)temp
F
wind
direction
speed
knots
gust
knots
rain 1hr
in
rain 24hr
in
rain mn
in
humidity
%
barometer
mb
20260904094504 79 94 0.9 4.3 0.00 0.04 0.00 68 1008.3
20260904093031 79 75 0.0 0.0 0.00 0.04 0.00 69 1008.3
20260904091529 79 131 0.9 5.2 0.00 0.04 0.00 67 1008.2
20260904090057 79 97 0.9 3.5 0.00 0.04 0.00 68 1008.2
20260904084557 78 111 0.0 0.0 0.00 0.04 0.00 69 1008.2
20260904083025 79 103 0.0 3.5 0.00 0.04 0.00 68 1008.2
20260904081525 79 113 0.0 1.7 0.00 0.04 0.00 68 1008.2
20260904080054 79 134 0.0 0.9 0.00 0.04 0.00 68 1008.2
20260904074607 78 115 0.0 1.7 0.00 0.04 0.00 69 1008.3
20260904073102 79 116 0.0 0.0 0.00 0.04 0.04 69 1008.3
20260904071549 79 117 0.0 2.6 0.00 0.04 0.04 67 1008.4
20260904070104 79 86 0.0 1.7 0.00 0.04 0.04 67 1008.5
20260904064547 80 85 0.9 3.5 0.00 0.04 0.04 66 1008.5
20260904063045 80 102 0.0 3.5 0.00 0.04 0.04 65 1008.5
20260904061544 80 124 0.0 4.3 0.00 0.04 0.04 64 1008.4
20260904060044 80 106 0.0 2.6 0.00 0.04 0.04 64 1008.3
20260904054546 81 93 0.9 4.3 0.00 0.04 0.04 64 1008.2
20260904053042 81 120 0.9 5.2 0.00 0.04 0.04 64 1008.1
20260904051541 81 113 0.0 2.6 0.00 0.04 0.04 64 1008.2
20260904050040 81 122 0.0 2.6 0.00 0.04 0.04 63 1008.3
20260904044539 82 129 0.0 5.2 0.00 0.04 0.04 62 1008.2
20260904043053 82 110 0.0 1.7 0.00 0.04 0.04 61 1008.4
20260904041536 82 105 0.0 0.9 0.00 0.04 0.04 61 1008.4
20260904040036 82 110 0.9 4.3 0.00 0.04 0.04 61 1008.2
20260904034539 83 84 2.6 6.1 0.00 0.04 0.04 61 1008.1
20260904033004 83 127 1.7 5.2 0.00 0.04 0.04 61 1008.0
20260904031504 83 105 2.6 6.1 0.00 0.04 0.04 61 1007.7
20260904030104 83 109 1.7 5.2 0.00 0.04 0.04 61 1007.3
20260904024534 83 129 1.7 4.3 0.00 0.04 0.04 62 1007.0
20260904023032 83 127 1.7 4.3 0.00 0.04 0.04 62 1006.9
20260904021537 83 113 1.7 3.5 0.00 0.04 0.04 61 1006.9
20260904020033 83 83 0.9 7.0 0.00 0.04 0.04 60 1006.7
20260904020030 83 85 0.9 7.0 0.00 0.04 0.04 60 1006.7
20260904014530 84 124 0.0 4.3 0.00 0.04 0.04 60 1006.4
20260904013030 85 116 1.7 4.3 0.00 0.04 0.04 58 1006.3
20260904011531 86 176 1.7 6.1 0.00 0.04 0.04 57 1005.8
20260904010026 86 224 0.0 2.6 0.00 0.04 0.04 61 1005.8
20260904004524 87 197 0.0 2.6 0.00 0.04 0.04 60 1005.9
20260904003024 85 260 0.0 1.7 0.03 0.04 0.04 63 1005.9
20260904001522 83 116 0.0 0.0 0.04 0.04 0.04 71 1005.8
20260904000103 82 127 0.0 0.0 0.04 0.04 0.04 80 1005.9
20260903234519 81 116 0.0 0.9 0.04 0.04 0.04 77 1005.9
20260903233017 85 226 0.0 3.5 0.01 0.01 0.01 67 1006.2
20260903231513 89 274 2.6 4.3 0.00 0.00 0.00 51 1006.1
20260903230021 90 203 0.0 1.7 0.00 0.00 0.00 50 1006.1
20260903224532 91 250 0.9 4.3 0.00 0.00 0.00 45 1006.0
20260903223012 91 267 3.5 8.7 0.00 0.00 0.00 45 1005.9
20260903221551 91 297 0.0 6.1 0.00 0.00 0.00 45 1006.1
20260903220038 94 295 2.6 7.8 0.00 0.00 0.00 43 1006.2
20260903214537 95 250 1.7 4.3 0.00 0.00 0.00 41 1006.4
20260903213036 95 252 2.6 5.2 0.00 0.00 0.00 40 1006.5
20260903211538 93 285 3.5 6.1 0.00 0.00 0.00 42 1006.6
20260903210031 93 304 0.0 4.3 0.00 0.00 0.00 44 1006.9
20260903204557 93 6 1.7 7.8 0.00 0.00 0.00 43 1007.0
20260903203055 95 134 0.9 4.3 0.00 0.00 0.00 43 1007.3
20260903201550 93 150 0.0 3.5 0.00 0.00 0.00 44 1007.6
20260903200048 92 269 1.7 3.5 0.00 0.00 0.00 44 1007.9
20260903194551 90 291 1.7 4.3 0.00 0.00 0.00 48 1008.1
20260903193050 92 124 0.0 2.6 0.00 0.00 0.00 45 1008.3
20260903191545 93 203 0.9 4.3 0.00 0.00 0.00 45 1008.6
20260903190047 92 200 2.6 5.2 0.00 0.00 0.00 46 1008.8
20260903184533 89 253 0.0 3.5 0.00 0.00 0.00 50 1009.1
20260903183032 88 276 0.9 1.7 0.00 0.00 0.00 50 1009.4
20260903181540 90 209 0.0 3.5 0.00 0.00 0.00 52 1009.6
20260903180025 89 117 0.9 4.3 0.00 0.00 0.00 52 1009.8
20260903174523 88 86 0.0 2.6 0.00 0.00 0.00 54 1010.0
20260903173019 87 152 0.9 5.2 0.00 0.00 0.00 54 1010.1
20260903171547 86 120 1.7 4.3 0.00 0.00 0.00 57 1010.1
20260903170054 84 107 0.0 3.5 0.00 0.00 0.00 60 1010.1
20260903164539 83 110 1.7 5.2 0.00 0.00 0.00 59 1010.1
20260903163047 83 122 1.7 6.1 0.00 0.00 0.00 60 1010.1
20260903161535 82 92 1.7 4.3 0.00 0.00 0.00 62 1010.1
20260903160033 82 124 0.0 1.7 0.00 0.00 0.00 64 1010.1
20260903154531 82 124 0.9 2.6 0.00 0.00 0.00 64 1010.1
20260903153029 82 120 0.0 3.5 0.00 0.00 0.00 65 1010.1
20260903151526 80 295 0.0 0.0 0.00 0.00 0.00 68 1010.2
20260903150034 79 295 0.0 0.9 0.00 0.00 0.00 70 1010.1
20260903144555 78 288 2.6 5.2 0.00 0.00 0.00 71 1010.1
20260903143059 78 297 0.9 4.3 0.00 0.00 0.00 71 1010.1
20260903141556 78 304 1.7 7.8 0.00 0.00 0.00 70 1010.2
20260903140050 78 296 1.7 6.1 0.00 0.00 0.00 67 1010.2
20260903134548 78 115 0.0 0.0 0.00 0.00 0.00 72 1010.1
20260903133047 78 116 0.0 0.0 0.00 0.00 0.00 72 1010.0
20260903131545 78 115 0.0 0.0 0.00 0.00 0.00 71 1010.0
20260903130041 78 115 0.0 0.0 0.00 0.00 0.00 70 1009.7
20260903124539 78 115 0.0 0.0 0.00 0.00 0.00 68 1009.7
20260903123038 78 143 0.0 0.0 0.00 0.00 0.00 68 1009.3
20260903121538 78 108 0.0 2.6 0.00 0.00 0.00 69 1009.2
20260903120040 78 93 0.0 2.6 0.00 0.00 0.00 69 1009.2
20260903114534 78 111 0.0 2.6 0.00 0.00 0.00 69 1009.0
20260903113033 78 89 0.0 3.5 0.00 0.00 0.00 69 1008.9
20260903111534 79 85 0.9 5.2 0.00 0.00 0.00 69 1009.0
20260903110029 79 112 1.7 4.3 0.00 0.00 0.00 69 1009.0
20260903104528 79 96 0.0 4.3 0.00 0.00 0.00 70 1008.9
20260903103027 78 120 0.9 4.3 0.00 0.00 0.00 70 1009.0
20260903101527 79 92 1.7 3.5 0.00 0.00 0.00 70 1009.1
20260903100026 79 120 0.0 2.6 0.00 0.00 0.00 70 1009.1